Welcome to the New NWS' Forecast!
Most changes are behind the scenes, but click here for differences you might notice.
Latest weather observations around

Mountain Home, Baxter County Regional Airport (KBPK)

Using English Units (Switch to International System of Units)
Date/ Time (CST) Wind (mph) Vis. (mi) Weather Sky Cond. Temp (°F) Rel. Humidity Wind Chill (°F) Heat Index (°F) Pressure Precip. (in)
Air Dwpt 6 hour Altimeter (inHg) Sea level (inHg) 1 hr 3 hr 6 hr
Max Min
Jan 21 10:02   10 Mostly Cloudy BKN020 BKN040 64 57     78%     29.95        
Jan 21 09:53 SSW 13 10 Mostly Cloudy SCT020 SCT025 BKN039 64 58     81%     29.95 29.94      
Jan 21 08:53 SSW 11 10 Partly Cloudy SCT024 61 57     87%     29.95 29.94      
Jan 21 08:26 S 9 10 Partly Cloudy SCT025 59 57     93%     29.95        
Jan 21 07:53 S 9 10 Mostly Cloudy BKN024 57 56     96%     29.95 29.94      
Jan 21 07:48 S 10 10 Mostly Cloudy BKN024 57 55     94%     29.95        
Jan 21 07:17 S 8 10 Mostly Cloudy BKN023 BKN030 56 55     97%     29.94        
Jan 21 06:53 S 8 10 Clear CLR 55 54     96%     29.94 29.93      
Jan 21 05:53 S 6 10 Mostly Cloudy BKN039 54 53     97%     29.95 29.94      
Jan 21 04:53 S 7 10 Clear CLR 53 53     100%     29.94 29.93      
Jan 21 03:53 S 5 10 Clear CLR 53 53     100%     29.93 29.92      
Jan 21 02:53 S 7 10 Clear CLR 55 53     93%     29.93 29.92      
Jan 21 01:53 S 6 10 Partly Cloudy SCT034 55 53     93%     29.93 29.92      
Jan 20 23:53 S 10 10 Partly Cloudy FEW020 SCT033 56 53     90%     29.94 29.93      
Jan 20 22:53 SSW 10 10 Cloudy FEW020 OVC031 56 53     90%     29.94 29.93      
Jan 20 21:53 S 8 10 Cloudy BKN020 OVC026 55 52     89%     29.95 29.95      
Jan 20 20:53 S 10 10 Mostly Cloudy BKN025 54 51     90%     29.96 29.96      
Jan 20 20:43 S 10 10 Mostly Cloudy BKN027 53 51     93%     29.96        
Jan 20 20:26 S 8 10 Partly Cloudy FEW018 SCT025 53 50     89%     29.97        
Jan 20 20:04 S 9 10 Mostly Cloudy SCT019 BKN024 53 50     89%     29.97        
Jan 20 19:53 S 10 10 Partly Cloudy FEW019 SCT025 53 50     89%     29.97 29.97      
Jan 20 19:09 SSW 10 10 Partly Cloudy SCT021 54 50     86%     29.97        
Jan 20 18:53 SSW 13 10 Mostly Cloudy BKN021 BKN025 54 50     86%     29.97 29.97      
Jan 20 17:53 SSW 11 10 Cloudy OVC028 55 49     80%     29.97 29.97      
Jan 20 17:09 SSW 8 10 Cloudy OVC029 56 49     77%     29.97        
Jan 20 16:53 SSW 11 10 Mostly Cloudy BKN030 56 49     77%     29.96 29.96      
Jan 20 15:53 SW 9 10 Mostly Cloudy BKN030 60 48     64%     29.95 29.95      
Jan 20 14:53 SW 7 10 Mostly Clear FEW031 60 47     62%     29.95 29.95      
Jan 20 13:53 SW 18 10 Partly Cloudy SCT027 60 47     62%     29.96 29.96      
Jan 20 13:51 WSW 14 10 Partly Cloudy SCT027 61 46     59%     29.96        
Jan 20 11:53 SSW 7 10 Cloudy OVC025 55 46     72%     30.01 30.01      
Jan 20 10:23 S 9 10 Mostly Cloudy BKN027 52 43     71%     30.05        
Jan 20 09:53 S 9 10 Clear CLR 51 42     71%     30.05 30.05      
Jan 20 08:53 S 7 10 Clear CLR 46 39     76% 42   30.03 30.04      
Jan 20 07:53 SSE 6 10 Mostly Clear FEW023 40 35     83% 36   30.02 30.03      
Jan 20 07:51 S 6 10 Partly Cloudy SCT023 39 36     87% 35   30.02        
Jan 20 07:29 SSE 6 10 Mostly Cloudy BKN023 41 34     76% 37   30.02        
Jan 20 06:53 SSE 6 10 Mostly Clear FEW026 38 32     79% 33   30.02 30.02      
Jan 20 04:53 S 8 10 Clear CLR 39 32     76% 33   30.01 30.01      
Jan 20 03:53 S 6 10 Clear CLR 38 31     76% 33   30.01 30.01      
Jan 20 02:53 S 5 10 Clear CLR 36 30     79% 32   30.02 30.02      
Jan 20 01:53 S 5 10 Clear CLR 37 30     76% 33   30.02 30.02      
Jan 20 00:53 SSW 3 10 Clear CLR 37 29     72% 35   30.03 30.03      
Jan 19 23:53 SSW 7 10 Clear CLR 37 28     70% 32   30.03 30.03      
Jan 19 22:53 SSW 8 10 Clear CLR 38 29     70% 32   30.03 30.04      
Jan 19 21:53 SSW 8 10 Clear CLR 39 30     70% 33   30.02 30.03      
Jan 19 20:53 S 8 10 Clear CLR 40 30     67% 34   30.01 30.03      
Jan 19 19:53 S 8 10 Clear CLR 41 31     67% 36   30.01 30.02      
Jan 19 18:53 SSW 6 8 Clear CLR 43 31     62% 39   30 30.01      
Jan 19 17:53 SSW 7 10 Clear CLR 45 30     56% 41   30 30.01      
Jan 19 15:53 SW 13 10 Clear CLR 54 31     41%     30 30.01      
Jan 19 13:53 SSW 9 10 Clear CLR 54 27     35%     30.02 30.03      
Jan 19 12:53 SSW 9 10 Clear CLR 50 23     34% 46   30.06 30.06      
Jan 19 10:53 SW 15 10 Clear CLR 42 18     37% 35   30.14 30.15      
Jan 19 08:53 SSW 7 10 Clear CLR 33 14     45% 27   30.15 30.17      
Jan 19 07:53 SSW 6 10 Clear CLR 29 13     51% 23   30.15 30.17      
Jan 19 06:53 S 5 10 Clear CLR 26 12     55% 20   30.15 30.17      
Jan 19 05:53 SSW 5 10 Clear CLR 27 12     53% 21   30.15 30.17      
Jan 19 04:53 SW 8 10 Clear CLR 29 13     51% 21   30.15 30.17      
Jan 19 03:53 SW 9 10 Clear CLR 30 12     47% 22   30.15 30.16      
Jan 19 02:53 SSW 6 10 Clear CLR 28 12     51% 22   30.17 30.19      
Jan 19 01:53 SW 6 10 Clear CLR 29 12     49% 23   30.18 30.2      
Jan 19 00:53 SW 7 10 Clear CLR 31 11     43% 24   30.2 30.22      
Jan 18 23:53 SW 10 10 Clear CLR 31 12     45% 22   30.21 30.23      
Jan 18 22:53 SW 8 10 Clear CLR 32 12     43% 25   30.22 30.24      
Jan 18 21:53 SSW 8 10 Clear CLR 32 11     41% 25   30.23 30.26      
Jan 18 19:53 SW 9 10 Clear CLR 34 7     32% 27   30.25 30.28      
Jan 18 18:53 WSW 8 10 Clear CLR 36 6     28% 30   30.24 30.27      
Jan 18 17:53 SSW 8 10 Clear CLR 38 7     27% 32   30.23 30.26     0
Jan 18 16:53 SSW 5 10 Clear CLR 42 10     26% 39   30.25 30.27      
Jan 18 15:53 SW 8 10 Clear CLR 45 9     23% 41   30.26 30.28      
Jan 18 14:53 SSW 9 10 Clear CLR 43 12     28% 38   30.28 30.3   0  
Jan 18 13:53 SSW 5 10 Clear CLR 40 16     37% 37   30.31 30.33 0    
Jan 18 12:53 SW 6 10 Clear CLR 36 17     46% 31   30.34 30.37      
Jan 18 11:53 SSW 3 10 Clear CLR 31 14     49% 28   30.4 30.43     0
Jan 18 10:53 SW 5 10 Clear CLR 27 13     55% 21   30.43 30.47      
Jun 08 22:53 Calm 10 Clear CLR 64 47     54%     29.96 29.93      
Jun 08 19:53 Calm 10 Clear CLR 68 55     63%     29.95 29.93      
Notice The following observation data may not be complete
Jun 07 19:53 Calm 10 Clear CLR   51      %     30 29.98      
Jun 07 13:53 3 10 Clear CLR 78 46     32%   77 30.03 30.01      
Jun 07 10:53 5 10 Clear CLR 73 55     53%   73 30.06 30.03      
Jun 06 11:53 6 10 Clear CLR 80 65     60%   82 29.9 29.87      
Jun 06 09:53 Calm 10 Clear CLR 75 65     71%   76 29.9 29.87